| time (UTC) | temp F | wind direction | speed MPH | gust MPH | rain 1hr in | rain 24hr in | rain mn in | humidity % | barometer mb |
| 20260506000747 | 74 | 328 | 5.0 | 11.0 | 0.00 | 0.00 | 0.00 | 43 | 1013.3 |
| 20260506000247 | 74 | 315 | 11.0 | 11.0 | 0.00 | 0.00 | 0.00 | 43 | 1013.3 |
| 20260505235246 | 74 | 318 | 6.0 | 10.0 | 0.00 | 0.00 | 0.00 | 43 | 1013.1 |
| 20260505234747 | 74 | 343 | 7.0 | 12.0 | 0.00 | 0.00 | 0.00 | 43 | 1013.0 |
| 20260505234247 | 74 | 17 | 3.0 | 12.0 | 0.00 | 0.00 | 0.00 | 43 | 1013.1 |
| 20260505233747 | 74 | 317 | 10.0 | 14.0 | 0.00 | 0.00 | 0.00 | 42 | 1013.1 |
| 20260505233246 | 75 | 288 | 3.0 | 14.0 | 0.00 | 0.00 | 0.00 | 42 | 1013.2 |
| 20260505232746 | 75 | 321 | 1.0 | 11.0 | 0.00 | 0.00 | 0.00 | 42 | 1013.2 |
| 20260505232246 | 75 | 331 | 5.0 | 14.0 | 0.00 | 0.00 | 0.00 | 42 | 1013.2 |
| 20260505231746 | 76 | 302 | 6.0 | 14.0 | 0.00 | 0.00 | 0.00 | 41 | 1013.2 |
| 20260505230246 | 76 | 303 | 5.0 | 15.0 | 0.00 | 0.00 | 0.00 | 41 | 1013.4 |
| 20260505225745 | 76 | 346 | 6.0 | 14.0 | 0.00 | 0.00 | 0.00 | 40 | 1013.3 |
| 20260505224746 | 75 | 325 | 8.0 | 13.0 | 0.00 | 0.00 | 0.00 | 41 | 1013.4 |
| 20260505224246 | 75 | 299 | 5.0 | 13.0 | 0.00 | 0.00 | 0.00 | 41 | 1013.3 |
| 20260505223745 | 75 | 309 | 7.0 | 13.0 | 0.00 | 0.00 | 0.00 | 41 | 1013.3 |
| 20260505223245 | 74 | 303 | 2.0 | 12.0 | 0.00 | 0.01 | 0.00 | 42 | 1013.4 |
| 20260505222745 | 74 | 309 | 3.0 | 14.0 | 0.00 | 0.01 | 0.00 | 42 | 1013.3 |
| 20260505222245 | 73 | 332 | 3.0 | 14.0 | 0.00 | 0.01 | 0.00 | 43 | 1013.3 |
| 20260505221245 | 71 | 318 | 4.0 | 11.0 | 0.00 | 0.01 | 0.00 | 44 | 1013.4 |
| 20260505220745 | 70 | 327 | 3.0 | 11.0 | 0.00 | 0.01 | 0.00 | 45 | 1013.4 |
| 20260505215745 | 70 | 302 | 1.0 | 19.0 | 0.00 | 0.01 | 0.00 | 46 | 1013.5 |
| 20260505214745 | 70 | 317 | 6.0 | 15.0 | 0.00 | 0.01 | 0.00 | 45 | 1013.6 |
| 20260505214245 | 69 | 301 | 14.0 | 14.0 | 0.00 | 0.01 | 0.00 | 46 | 1013.5 |
| 20260505213744 | 69 | 304 | 3.0 | 14.0 | 0.00 | 0.01 | 0.00 | 46 | 1013.6 |
| 20260505213245 | 69 | 302 | 9.0 | 14.0 | 0.00 | 0.01 | 0.00 | 46 | 1013.6 |
| 20260505212744 | 69 | 229 | 3.0 | 14.0 | 0.00 | 0.01 | 0.00 | 46 | 1013.6 |
| 20260505212244 | 69 | 304 | 5.0 | 14.0 | 0.00 | 0.01 | 0.00 | 46 | 1013.6 |
| 20260505211744 | 69 | 311 | 14.0 | 14.0 | 0.00 | 0.01 | 0.00 | 46 | 1013.6 |
| 20260505211244 | 69 | 318 | 3.0 | 18.0 | 0.00 | 0.01 | 0.00 | 46 | 1013.6 |
| 20260505210744 | 70 | 313 | 8.0 | 18.0 | 0.00 | 0.01 | 0.00 | 45 | 1013.5 |
| 20260505205244 | 71 | 249 | 6.0 | 12.0 | 0.00 | 0.01 | 0.00 | 45 | 1013.5 |
| 20260505204744 | 71 | 295 | 0.0 | 18.0 | 0.00 | 0.01 | 0.00 | 45 | 1013.5 |
| 20260505203744 | 72 | 325 | 5.0 | 15.0 | 0.00 | 0.01 | 0.00 | 44 | 1013.6 |
| 20260505202743 | 73 | 286 | 9.0 | 14.0 | 0.00 | 0.01 | 0.00 | 42 | 1013.6 |
| 20260505202244 | 73 | 185 | 5.0 | 14.0 | 0.00 | 0.01 | 0.00 | 42 | 1013.6 |
| 20260505201744 | 72 | 302 | 4.0 | 13.0 | 0.00 | 0.01 | 0.00 | 42 | 1013.6 |
| 20260505201243 | 72 | 286 | 0.0 | 18.0 | 0.00 | 0.01 | 0.00 | 43 | 1013.7 |
| 20260505200744 | 72 | 288 | 4.0 | 18.0 | 0.00 | 0.01 | 0.00 | 43 | 1013.8 |
| 20260505200243 | 72 | 312 | 3.0 | 9.0 | 0.00 | 0.01 | 0.00 | 43 | 1013.7 |
| 20260505195243 | 72 | 275 | 4.0 | 14.0 | 0.00 | 0.01 | 0.00 | 42 | 1013.7 |
| 20260505194243 | 71 | 291 | 13.0 | 16.0 | 0.00 | 0.01 | 0.00 | 43 | 1013.8 |
| 20260505193742 | 70 | 312 | 3.0 | 12.0 | 0.00 | 0.01 | 0.00 | 44 | 1013.9 |
| 20260505193244 | 69 | 306 | 9.0 | 14.0 | 0.00 | 0.01 | 0.00 | 44 | 1014.0 |
| 20260505192743 | 70 | 264 | 4.0 | 14.0 | 0.00 | 0.01 | 0.00 | 43 | 1014.0 |
| 20260505192243 | 70 | 292 | 7.0 | 14.0 | 0.00 | 0.01 | 0.00 | 43 | 1014.0 |
| 20260505191743 | 70 | 309 | 2.0 | 13.0 | 0.00 | 0.01 | 0.00 | 43 | 1013.9 |
| 20260505191243 | 70 | 11 | 4.0 | 12.0 | 0.00 | 0.01 | 0.00 | 43 | 1013.9 |
| 20260505190742 | 71 | 318 | 4.0 | 12.0 | 0.00 | 0.01 | 0.00 | 43 | 1014.0 |
| 20260505190242 | 71 | 281 | 3.0 | 9.0 | 0.00 | 0.01 | 0.00 | 43 | 1013.9 |
| 20260505185742 | 71 | 281 | 3.0 | 8.0 | 0.00 | 0.01 | 0.00 | 43 | 1013.9 |
| 20260505185242 | 71 | 310 | 4.0 | 9.0 | 0.00 | 0.01 | 0.00 | 43 | 1013.9 |
| 20260505184242 | 71 | 294 | 7.0 | 11.0 | 0.00 | 0.01 | 0.00 | 41 | 1013.8 |
| 20260505183742 | 72 | 302 | 3.0 | 12.0 | 0.00 | 0.01 | 0.00 | 40 | 1013.8 |
| 20260505183242 | 72 | 292 | 6.0 | 12.0 | 0.00 | 0.01 | 0.00 | 40 | 1013.8 |
| 20260505182742 | 72 | 310 | 4.0 | 11.0 | 0.00 | 0.01 | 0.00 | 39 | 1013.9 |
| 20260505182241 | 71 | 341 | 4.0 | 11.0 | 0.00 | 0.01 | 0.00 | 39 | 1014.0 |
| 20260505181241 | 70 | 315 | 4.0 | 10.0 | 0.00 | 0.01 | 0.00 | 40 | 1014.1 |
| 20260505180741 | 69 | 306 | 3.0 | 12.0 | 0.00 | 0.01 | 0.00 | 40 | 1014.0 |
| 20260505180241 | 69 | 317 | 3.0 | 12.0 | 0.00 | 0.01 | 0.00 | 39 | 1014.1 |
| 20260505175242 | 68 | 306 | 0.0 | 9.0 | 0.00 | 0.01 | 0.00 | 39 | 1014.0 |
| 20260505174741 | 67 | 314 | 6.0 | 12.0 | 0.00 | 0.01 | 0.00 | 39 | 1013.9 |
| 20260505173741 | 67 | 338 | 0.0 | 10.0 | 0.00 | 0.01 | 0.00 | 38 | 1014.0 |
| 20260505172741 | 66 | 221 | 3.0 | 9.0 | 0.00 | 0.01 | 0.00 | 38 | 1013.9 |
| 20260505172241 | 66 | 240 | 1.0 | 9.0 | 0.00 | 0.01 | 0.00 | 37 | 1013.9 |
| 20260505171740 | 65 | 355 | 0.0 | 9.0 | 0.00 | 0.01 | 0.00 | 37 | 1013.9 |
| 20260505171241 | 65 | 310 | 0.0 | 14.0 | 0.00 | 0.01 | 0.00 | 37 | 1013.9 |
| 20260505170741 | 65 | 286 | 5.0 | 14.0 | 0.00 | 0.01 | 0.00 | 37 | 1013.9 |
| 20260505170241 | 65 | 294 | 9.0 | 13.0 | 0.00 | 0.01 | 0.00 | 36 | 1013.9 |
| 20260505165740 | 64 | 300 | 2.0 | 11.0 | 0.00 | 0.01 | 0.00 | 36 | 1013.9 |
| 20260505165241 | 63 | 331 | 1.0 | 10.0 | 0.00 | 0.01 | 0.00 | 36 | 1014.2 |
| 20260505164740 | 62 | 331 | 3.0 | 11.0 | 0.00 | 0.01 | 0.00 | 36 | 1014.3 |
| 20260505164240 | 62 | 300 | 6.0 | 12.0 | 0.00 | 0.01 | 0.00 | 36 | 1014.2 |
| 20260505163740 | 63 | 263 | 3.0 | 12.0 | 0.00 | 0.01 | 0.00 | 36 | 1014.1 |
| 20260505163240 | 63 | 257 | 4.0 | 12.0 | 0.00 | 0.01 | 0.00 | 35 | 1014.2 |
| 20260505162740 | 63 | 307 | 2.0 | 12.0 | 0.00 | 0.01 | 0.00 | 34 | 1014.1 |
| 20260505162240 | 62 | 311 | 6.0 | 11.0 | 0.00 | 0.01 | 0.00 | 34 | 1014.2 |
| 20260505161740 | 62 | 294 | 4.0 | 11.0 | 0.00 | 0.01 | 0.00 | 34 | 1014.1 |
| 20260505161240 | 61 | 295 | 1.0 | 9.0 | 0.00 | 0.01 | 0.00 | 33 | 1013.9 |
| 20260505160740 | 61 | 307 | 2.0 | 10.0 | 0.00 | 0.01 | 0.00 | 32 | 1014.0 |
| 20260505153240 | 57 | 298 | 5.0 | 10.0 | 0.00 | 0.01 | 0.00 | 20 | 1014.0 |
| 20260505152739 | 57 | 324 | 4.0 | 6.0 | 0.00 | 0.01 | 0.00 | 17 | 1014.0 |
| 20260505151739 | 56 | 277 | 0.0 | 4.0 | 0.00 | 0.01 | 0.00 | 14 | 1014.1 |
| 20260505151239 | 56 | 279 | 0.0 | 4.0 | 0.00 | 0.01 | 0.00 | 14 | 1013.8 |
| 20260505150739 | 55 | 285 | 0.0 | 3.0 | 0.00 | 0.01 | 0.00 | 13 | 1013.7 |
| 20260505150239 | 55 | 284 | 1.0 | 3.0 | 0.00 | 0.01 | 0.00 | 13 | 1013.7 |
| 20260505140238 | 49 | 292 | 0.0 | 0.0 | 0.00 | 0.01 | 0.00 | 15 | 1013.8 |
| 20260505130237 | 49 | 301 | 0.0 | 0.0 | 0.00 | 0.01 | 0.00 | 15 | 1013.6 |
| 20260505124737 | 49 | 301 | 0.0 | 0.0 | 0.00 | 0.01 | 0.00 | 15 | 1013.7 |
| 20260505124237 | 49 | 301 | 0.0 | 0.0 | 0.00 | 0.01 | 0.00 | 15 | 1013.7 |
| 20260505123737 | 49 | 301 | 0.0 | 0.0 | 0.00 | 0.01 | 0.00 | 15 | 1013.7 |
| 20260505122738 | 48 | 300 | 0.0 | 0.0 | 0.00 | 0.01 | 0.00 | 15 | 1013.6 |
| 20260505122237 | 48 | 301 | 0.0 | 0.0 | 0.00 | 0.01 | 0.00 | 15 | 1013.6 |
| 20260505121737 | 48 | 301 | 0.0 | 0.0 | 0.00 | 0.01 | 0.00 | 15 | 1013.7 |
| 20260505121237 | 48 | 300 | 0.0 | 0.0 | 0.00 | 0.01 | 0.00 | 15 | 1013.6 |
| 20260505120736 | 48 | 301 | 0.0 | 0.0 | 0.00 | 0.01 | 0.00 | 15 | 1013.6 |
| 20260505120236 | 48 | 301 | 0.0 | 0.0 | 0.00 | 0.01 | 0.00 | 15 | 1013.6 |
| 20260505115736 | 48 | 300 | 0.0 | 0.0 | 0.00 | 0.01 | 0.00 | 16 | 1013.7 |
| 20260505115236 | 48 | 300 | 0.0 | 0.0 | 0.00 | 0.01 | 0.00 | 16 | 1013.6 |
| 20260505114737 | 48 | 301 | 0.0 | 0.0 | 0.00 | 0.01 | 0.00 | 16 | 1013.6 |
| 20260505114236 | 48 | 301 | 0.0 | 0.0 | 0.00 | 0.01 | 0.00 | 16 | 1013.6 |
| 20260505113236 | 48 | 300 | 0.0 | 0.0 | 0.00 | 0.01 | 0.00 | 16 | 1013.6 |
| 20260505112736 | 48 | 301 | 0.0 | 0.0 | 0.00 | 0.01 | 0.00 | 16 | 1013.7 |
| 20260505112236 | 48 | 301 | 0.0 | 0.0 | 0.00 | 0.01 | 0.00 | 16 | 1013.6 |
| 20260505111736 | 48 | 300 | 0.0 | 0.0 | 0.00 | 0.01 | 0.00 | 16 | 1013.6 |
| 20260505111236 | 48 | 301 | 0.0 | 0.0 | 0.00 | 0.01 | 0.00 | 17 | 1013.6 |
| 20260505110737 | 48 | 301 | 0.0 | 0.0 | 0.00 | 0.01 | 0.00 | 17 | 1013.6 |
| 20260505110236 | 48 | 301 | 0.0 | 0.0 | 0.00 | 0.01 | 0.00 | 17 | 1013.6 |
| 20260505101735 | 50 | 300 | 0.0 | 0.0 | 0.00 | 0.01 | 0.00 | 16 | 1013.6 |
| 20260505101235 | 50 | 301 | 0.0 | 0.0 | 0.00 | 0.01 | 0.00 | 16 | 1013.7 |
| 20260505100735 | 50 | 301 | 0.0 | 0.0 | 0.00 | 0.01 | 0.00 | 16 | 1013.7 |
| 20260505095735 | 49 | 301 | 0.0 | 0.0 | 0.00 | 0.01 | 0.00 | 17 | 1013.8 |
| 20260505094735 | 49 | 301 | 0.0 | 0.0 | 0.00 | 0.01 | 0.00 | 17 | 1013.9 |
| 20260505094235 | 49 | 300 | 0.0 | 0.0 | 0.00 | 0.01 | 0.00 | 17 | 1013.9 |
| 20260505093734 | 49 | 301 | 0.0 | 0.0 | 0.00 | 0.01 | 0.00 | 18 | 1014.0 |
| 20260505093234 | 49 | 301 | 0.0 | 0.0 | 0.00 | 0.01 | 0.00 | 18 | 1014.0 |
| 20260505092734 | 49 | 301 | 0.0 | 0.0 | 0.00 | 0.01 | 0.00 | 18 | 1014.0 |
| 20260505091734 | 50 | 301 | 0.0 | 0.0 | 0.00 | 0.01 | 0.00 | 18 | 1014.2 |
| 20260505091234 | 50 | 301 | 0.0 | 0.0 | 0.00 | 0.01 | 0.00 | 18 | 1014.2 |
| 20260505090735 | 50 | 300 | 0.0 | 0.0 | 0.00 | 0.01 | 0.00 | 18 | 1014.3 |
| 20260505090234 | 50 | 300 | 0.0 | 0.0 | 0.00 | 0.01 | 0.00 | 19 | 1014.3 |
| 20260505085733 | 50 | 301 | 0.0 | 0.0 | 0.00 | 0.01 | 0.00 | 19 | 1014.2 |
| 20260505085234 | 50 | 301 | 0.0 | 0.0 | 0.00 | 0.01 | 0.00 | 19 | 1014.3 |
| 20260505084734 | 50 | 300 | 0.0 | 0.0 | 0.00 | 0.01 | 0.00 | 19 | 1014.4 |
| 20260505084233 | 50 | 301 | 0.0 | 0.0 | 0.00 | 0.01 | 0.00 | 19 | 1014.4 |
| 20260505083734 | 50 | 301 | 0.0 | 0.0 | 0.00 | 0.01 | 0.00 | 19 | 1014.4 |
| 20260505083234 | 50 | 301 | 0.0 | 0.0 | 0.00 | 0.01 | 0.00 | 19 | 1014.5 |
| 20260505082733 | 51 | 300 | 0.0 | 0.0 | 0.00 | 0.01 | 0.00 | 19 | 1014.4 |
| 20260505082233 | 51 | 301 | 0.0 | 0.0 | 0.00 | 0.01 | 0.00 | 19 | 1014.5 |
| 20260505081233 | 51 | 301 | 0.0 | 0.0 | 0.00 | 0.01 | 0.00 | 18 | 1014.6 |
| 20260505080233 | 51 | 300 | 0.0 | 0.0 | 0.00 | 0.01 | 0.00 | 18 | 1014.6 |
| 20260505075733 | 51 | 301 | 0.0 | 0.0 | 0.00 | 0.01 | 0.00 | 18 | 1014.7 |
| 20260505075233 | 51 | 300 | 0.0 | 0.0 | 0.00 | 0.01 | 0.00 | 19 | 1014.7 |
| 20260505074734 | 50 | 301 | 0.0 | 0.0 | 0.00 | 0.01 | 0.00 | 20 | 1014.7 |
| 20260505074233 | 50 | 301 | 0.0 | 0.0 | 0.00 | 0.01 | 0.00 | 20 | 1014.7 |
| 20260505073733 | 50 | 301 | 0.0 | 0.0 | 0.00 | 0.01 | 0.00 | 20 | 1014.8 |
| 20260505073234 | 50 | 300 | 0.0 | 0.0 | 0.00 | 0.01 | 0.00 | 21 | 1014.7 |
| 20260505072733 | 50 | 300 | 0.0 | 0.0 | 0.00 | 0.01 | 0.00 | 21 | 1014.7 |
| 20260505071733 | 50 | 300 | 0.0 | 0.0 | 0.00 | 0.01 | 0.00 | 22 | 1014.6 |
| 20260505071232 | 50 | 301 | 0.0 | 0.0 | 0.00 | 0.01 | 0.00 | 22 | 1014.7 |
| 20260505070732 | 50 | 301 | 0.0 | 0.0 | 0.00 | 0.01 | 0.00 | 23 | 1014.6 |
| 20260505070232 | 50 | 301 | 0.0 | 0.0 | 0.00 | 0.01 | 0.00 | 24 | 1014.5 |
| 20260505065732 | 50 | 300 | 0.0 | 0.0 | 0.00 | 0.01 | 0.01 | 24 | 1014.5 |
| 20260505065232 | 50 | 300 | 0.0 | 0.0 | 0.00 | 0.01 | 0.01 | 25 | 1014.3 |
| 20260505064231 | 50 | 301 | 0.0 | 0.0 | 0.00 | 0.01 | 0.01 | 26 | 1014.4 |
| 20260505063731 | 50 | 301 | 0.0 | 0.0 | 0.00 | 0.01 | 0.01 | 26 | 1014.5 |
| 20260505063231 | 50 | 300 | 0.0 | 0.0 | 0.00 | 0.01 | 0.01 | 28 | 1014.4 |
| 20260505062731 | 50 | 301 | 0.0 | 0.0 | 0.00 | 0.01 | 0.01 | 28 | 1014.3 |
| 20260505062231 | 50 | 301 | 0.0 | 0.0 | 0.00 | 0.01 | 0.01 | 29 | 1014.3 |
| 20260505061731 | 50 | 300 | 0.0 | 0.0 | 0.00 | 0.01 | 0.01 | 29 | 1014.3 |
| 20260505061231 | 50 | 300 | 0.0 | 0.0 | 0.00 | 0.01 | 0.01 | 30 | 1014.3 |
| 20260505060731 | 50 | 301 | 0.0 | 0.0 | 0.00 | 0.01 | 0.01 | 30 | 1014.4 |
| 20260505060231 | 50 | 301 | 0.0 | 0.0 | 0.00 | 0.01 | 0.01 | 31 | 1014.4 |
| 20260505055731 | 51 | 301 | 0.0 | 0.0 | 0.00 | 0.01 | 0.01 | 32 | 1014.4 |
| 20260505055231 | 51 | 301 | 0.0 | 0.0 | 0.00 | 0.01 | 0.01 | 32 | 1014.5 |
| 20260505054731 | 51 | 301 | 0.0 | 0.0 | 0.00 | 0.01 | 0.01 | 33 | 1014.4 |
| 20260505054231 | 51 | 301 | 0.0 | 0.0 | 0.00 | 0.01 | 0.01 | 33 | 1014.4 |
| 20260505053731 | 51 | 300 | 0.0 | 0.0 | 0.00 | 0.01 | 0.01 | 34 | 1014.4 |
| 20260505052231 | 52 | 300 | 0.0 | 0.0 | 0.00 | 0.01 | 0.01 | 37 | 1014.7 |
| 20260505051731 | 52 | 300 | 0.0 | 0.0 | 0.00 | 0.01 | 0.01 | 38 | 1014.7 |
| 20260505051230 | 52 | 301 | 0.0 | 0.0 | 0.00 | 0.01 | 0.01 | 39 | 1014.7 |
| 20260505050730 | 53 | 301 | 0.0 | 0.0 | 0.00 | 0.01 | 0.01 | 39 | 1014.7 |
| 20260505041729 | 56 | 301 | 0.0 | 0.0 | 0.00 | 0.01 | 0.01 | 45 | 1014.5 |
| 20260505041229 | 56 | 301 | 0.0 | 1.0 | 0.00 | 0.01 | 0.01 | 46 | 1014.5 |
| 20260505040729 | 56 | 300 | 0.0 | 3.0 | 0.00 | 0.01 | 0.01 | 46 | 1014.3 |
| 20260505040229 | 56 | 300 | 0.0 | 5.0 | 0.00 | 0.01 | 0.01 | 46 | 1014.3 |
| 20260505035229 | 57 | 301 | 0.0 | 4.0 | 0.00 | 0.01 | 0.01 | 46 | 1014.2 |
| 20260505034729 | 57 | 300 | 0.0 | 6.0 | 0.00 | 0.01 | 0.01 | 47 | 1014.2 |
| 20260505033729 | 57 | 298 | 1.0 | 8.0 | 0.00 | 0.01 | 0.01 | 46 | 1014.1 |
| 20260505033229 | 57 | 311 | 3.0 | 8.0 | 0.00 | 0.01 | 0.01 | 46 | 1014.0 |
| 20260505032729 | 58 | 311 | 4.0 | 7.0 | 0.00 | 0.01 | 0.01 | 46 | 1014.0 |
| 20260505032229 | 58 | 299 | 0.0 | 5.0 | 0.00 | 0.01 | 0.01 | 46 | 1013.8 |
| 20260505031729 | 58 | 301 | 3.0 | 5.0 | 0.00 | 0.01 | 0.01 | 46 | 1013.7 |
| 20260505031229 | 58 | 265 | 0.0 | 4.0 | 0.00 | 0.01 | 0.01 | 46 | 1013.7 |
| 20260505030729 | 58 | 265 | 1.0 | 7.0 | 0.00 | 0.01 | 0.01 | 46 | 1013.6 |
| 20260505025228 | 59 | 280 | 0.0 | 5.0 | 0.00 | 0.01 | 0.01 | 46 | 1013.4 |
| 20260505024729 | 59 | 281 | 0.0 | 5.0 | 0.00 | 0.01 | 0.01 | 46 | 1013.3 |
| 20260505024228 | 59 | 290 | 1.0 | 5.0 | 0.00 | 0.01 | 0.01 | 46 | 1013.2 |
| 20260505023728 | 59 | 290 | 0.0 | 4.0 | 0.00 | 0.01 | 0.01 | 46 | 1013.2 |
| 20260505023228 | 59 | 290 | 0.0 | 7.0 | 0.00 | 0.01 | 0.01 | 46 | 1013.1 |
| 20260505022228 | 60 | 250 | 2.0 | 5.0 | 0.00 | 0.01 | 0.01 | 47 | 1013.2 |
| 20260505021728 | 60 | 250 | 0.0 | 4.0 | 0.00 | 0.01 | 0.01 | 47 | 1013.2 |
| 20260505021228 | 60 | 248 | 0.0 | 6.0 | 0.00 | 0.01 | 0.01 | 47 | 1013.2 |
| 20260505020228 | 61 | 198 | 0.0 | 5.0 | 0.00 | 0.01 | 0.01 | 47 | 1013.2 |
| 20260505015728 | 61 | 277 | 0.0 | 5.0 | 0.00 | 0.01 | 0.01 | 47 | 1013.0 |
| 20260505015228 | 62 | 283 | 0.0 | 14.0 | 0.00 | 0.01 | 0.01 | 46 | 1013.0 |
| 20260505014728 | 62 | 300 | 1.0 | 14.0 | 0.00 | 0.01 | 0.01 | 46 | 1013.1 |
| 20260505014227 | 62 | 253 | 1.0 | 7.0 | 0.00 | 0.01 | 0.01 | 46 | 1013.0 |
| 20260505013727 | 63 | 283 | 0.0 | 11.0 | 0.00 | 0.01 | 0.01 | 46 | 1013.0 |
| 20260505013227 | 63 | 302 | 6.0 | 11.0 | 0.00 | 0.01 | 0.01 | 46 | 1013.1 |
| 20260505012727 | 62 | 325 | 0.0 | 6.0 | 0.00 | 0.01 | 0.01 | 46 | 1013.1 |
| 20260505012227 | 62 | 302 | 0.0 | 6.0 | 0.00 | 0.01 | 0.01 | 46 | 1013.2 |
| 20260505011727 | 62 | 304 | 2.0 | 7.0 | 0.00 | 0.01 | 0.01 | 46 | 1013.2 |
| 20260505011227 | 63 | 303 | 0.0 | 7.0 | 0.00 | 0.01 | 0.01 | 46 | 1013.2 |
| 20260505010227 | 63 | 251 | 0.0 | 9.0 | 0.00 | 0.01 | 0.01 | 46 | 1013.2 |
| 20260505005727 | 63 | 279 | 0.0 | 9.0 | 0.00 | 0.01 | 0.01 | 45 | 1013.2 |
| 20260505005227 | 63 | 304 | 1.0 | 9.0 | 0.00 | 0.01 | 0.01 | 45 | 1013.1 |
| 20260505004726 | 63 | 321 | 2.0 | 9.0 | 0.00 | 0.01 | 0.01 | 45 | 1013.1 |
| 20260505004227 | 64 | 321 | 0.0 | 10.0 | 0.00 | 0.01 | 0.01 | 45 | 1013.1 |
| 20260505003726 | 64 | 304 | 3.0 | 10.0 | 0.00 | 0.01 | 0.01 | 44 | 1013.1 |
| 20260505003226 | 65 | 246 | 2.0 | 6.0 | 0.00 | 0.01 | 0.01 | 44 | 1013.1 |
| 20260505002726 | 65 | 289 | 2.0 | 9.0 | 0.00 | 0.01 | 0.01 | 44 | 1013.0 |
| 20260505002226 | 65 | 303 | 0.0 | 11.0 | 0.00 | 0.01 | 0.01 | 43 | 1013.0 |
| 20260505001726 | 65 | 276 | 3.0 | 11.0 | 0.00 | 0.01 | 0.01 | 42 | 1012.9 |